When you browse on this site, cookies collect data to enhance your experience and personalize the content and advertising you see.
Visit our Privacy Policy to learn more. By continuing to use the site, you agree to this use of cookies and data.
  • In United Kingdom
  • List of Countries
  • For 7 days
  • Water Temperature
  • Satellite Maps
  • Weather Map
  • Weather Widgets
  • user-avatar
    Login

    Hourly Weather Tlalixtac de Cabrera

    Today, 24 January, Thursday

    Time Temperature Precipitation Wind Pressure Humidity
    00:00 +16°C° 0 mm 2 mps 632 mmHg 92%
    01:00 +16°C° 0 mm 1 mps 632 mmHg 91%
    02:00 +15°C° 0 mm 1 mps 631 mmHg 91%
    03:00 +15°C° 0 mm 1 mps 631 mmHg 90%
    04:00 +15°C° 0 mm 1 mps 631 mmHg 90%
    05:00 +14°C° 0 mm 1 mps 631 mmHg 90%
    06:00 +14°C° 0 mm 1 mps 630 mmHg 90%
    07:00 +15°C° 0 mm 1 mps 631 mmHg 85%
    08:00 +16°C° 0 mm 1 mps 632 mmHg 80%
    09:00 +18°C° 0 mm 1 mps 632 mmHg 75%
    10:00 +20°C° 0 mm 1 mps 633 mmHg 65%
    11:00 +23°C° 0 mm 1 mps 634 mmHg 55%
    12:00 +24°C° 0 mm 0 mps 635 mmHg 46%
    13:00 +26°C° 0 mm 1 mps 634 mmHg 43%
    14:00 +27°C° 0 mm 1 mps 634 mmHg 41%
    15:00 +27°C° 0 mm 1 mps 633 mmHg 39%
    16:00 +26°C° 0 mm 1 mps 633 mmHg 45%
    17:00 +24°C° 0 mm 1 mps 632 mmHg 52%
    18:00 +23°C° 0 mm 2 mps 632 mmHg 58%
    19:00 +21°C° 0 mm 1 mps 632 mmHg 66%
    20:00 +19°C° 0 mm 1 mps 631 mmHg 74%
    21:00 +18°C° 0 mm 1 mps 631 mmHg 81%
    22:00 +16°C° 0 mm 1 mps 631 mmHg 83%
    23:00 +16°C° 0 mm 1 mps 631 mmHg 85%

    Tomorrow, 25 January, Friday

    Time Temperature Precipitation Wind Pressure Humidity
    00:00 +15°C° 0 mm 1 mps 631 mmHg 87%
    01:00 +15°C° 0 mm 1 mps 631 mmHg 88%
    02:00 +15°C° 0 mm 1 mps 631 mmHg 88%
    03:00 +14°C° 0 mm 1 mps 630 mmHg 89%
    04:00 +14°C° 0 mm 1 mps 630 mmHg 90%
    05:00 +14°C° 0 mm 2 mps 630 mmHg 90%
    06:00 +14°C° 0 mm 2 mps 630 mmHg 91%
    07:00 +15°C° 0 mm 2 mps 631 mmHg 86%
    08:00 +16°C° 0 mm 2 mps 632 mmHg 80%
    09:00 +17°C° 0 mm 2 mps 633 mmHg 75%
    10:00 +19°C° 0 mm 2 mps 634 mmHg 68%
    11:00 +20°C° 0 mm 2 mps 634 mmHg 62%
    12:00 +23°C° 0 mm 2 mps 635 mmHg 55%
    13:00 +23°C° 0 mm 2 mps 634 mmHg 54%
    14:00 +23°C° 0 mm 2 mps 633 mmHg 53%
    15:00 +23°C° 0 mm 2 mps 633 mmHg 52%
    16:00 +21°C° 0 mm 2 mps 632 mmHg 57%
    17:00 +20°C° 0 mm 2 mps 632 mmHg 63%
    18:00 +19°C° 0 mm 2 mps 632 mmHg 68%
    19:00 +18°C° 0 mm 2 mps 632 mmHg 72%
    20:00 +16°C° 0 mm 2 mps 632 mmHg 77%
    21:00 +15°C° 0 mm 2 mps 632 mmHg 82%
    22:00 +15°C° 0 mm 2 mps 632 mmHg 83%
    23:00 +14°C° 0 mm 2 mps 632 mmHg 85%

    Day after tomorrow, 26 January, Saturday

    Time Temperature Precipitation Wind Pressure Humidity
    00:00 +13°C° 0 mm 2 mps 632 mmHg 87%
    01:00 +13°C° 0 mm 2 mps 631 mmHg 88%
    02:00 +13°C° 0 mm 1 mps 631 mmHg 88%
    03:00 +13°C° 0 mm 1 mps 630 mmHg 88%
    04:00 +12°C° 0 mm 1 mps 630 mmHg 89%
    05:00 +12°C° 0 mm 1 mps 630 mmHg 89%
    06:00 +12°C° 0 mm 1 mps 630 mmHg 90%
    07:00 +14°C° 0 mm 1 mps 631 mmHg 81%
    08:00 +16°C° 0 mm 1 mps 632 mmHg 73%
    09:00 +19°C° 0 mm 1 mps 633 mmHg 65%
    10:00 +21°C° 0 mm 1 mps 633 mmHg 57%
    11:00 +23°C° 0 mm 1 mps 634 mmHg 50%
    12:00 +26°C° 0 mm 1 mps 634 mmHg 43%
    13:00 +26°C° 0 mm 1 mps 633 mmHg 42%
    14:00 +26°C° 0 mm 1 mps 633 mmHg 41%
    15:00 +26°C° 0 mm 1 mps 632 mmHg 40%
    16:00 +25°C° 0 mm 1 mps 631 mmHg 47%
    17:00 +23°C° 0 mm 1 mps 631 mmHg 54%
    18:00 +22°C° 0 mm 1 mps 630 mmHg 61%
    19:00 +21°C° 0 mm 1 mps 630 mmHg 67%
    20:00 +19°C° 0 mm 1 mps 630 mmHg 74%
    21:00 +18°C° 0 mm 1 mps 630 mmHg 80%
    22:00 +16°C° 0 mm 1 mps 630 mmHg 84%
    23:00 +15°C° 0 mm 1 mps 630 mmHg 88%

    27 January, Sunday

    Time Temperature Precipitation Wind Pressure Humidity
    00:00 +15°C° 0 mm 1 mps 629 mmHg 92%
    01:00 +15°C° 0 mm 1 mps 629 mmHg 92%
    02:00 +14°C° 0 mm 1 mps 628 mmHg 93%
    03:00 +14°C° 0 mm 1 mps 628 mmHg 94%
    04:00 +14°C° 0 mm 1 mps 628 mmHg 94%
    05:00 +14°C° 0 mm 1 mps 628 mmHg 94%
    06:00 +13°C° 0 mm 1 mps 627 mmHg 95%
    07:00 +15°C° 0 mm 1 mps 629 mmHg 86%
    08:00 +18°C° 0 mm 1 mps 630 mmHg 77%
    09:00 +20°C° 0 mm 1 mps 631 mmHg 68%
    10:00 +23°C° 0 mm 1 mps 632 mmHg 57%
    11:00 +25°C° 0 mm 1 mps 632 mmHg 46%
    12:00 +27°C° 0 mm 1 mps 633 mmHg 35%
    13:00 +27°C° 0 mm 1 mps 632 mmHg 37%
    14:00 +26°C° 0 mm 2 mps 631 mmHg 38%
    15:00 +26°C° 0 mm 2 mps 631 mmHg 40%
    16:00 +24°C° 0.1 mm 3 mps 630 mmHg 50%
    17:00 +21°C° 0.1 mm 3 mps 630 mmHg 59%
    18:00 +20°C° 0.1 mm 3 mps 630 mmHg 68%
    19:00 +18°C° 0.2 mm 3 mps 630 mmHg 75%
    20:00 +17°C° 0.2 mm 3 mps 631 mmHg 82%
    21:00 +14°C° 0.2 mm 3 mps 631 mmHg 88%
    22:00 +15°C° 0.1 mm 2 mps 631 mmHg 88%
    23:00 +14°C° 0.1 mm 2 mps 631 mmHg 87%

    28 January, Monday

    Time Temperature Precipitation Wind Pressure Humidity
    00:00 +14°C° 0.1 mm 2 mps 630 mmHg 86%
    01:00 +14°C° 0 mm 2 mps 630 mmHg 85%
    02:00 +14°C° 0 mm 2 mps 630 mmHg 85%
    03:00 +13°C° 0 mm 2 mps 629 mmHg 84%
    04:00 +13°C° 0 mm 1 mps 629 mmHg 86%
    05:00 +12°C° 0 mm 1 mps 629 mmHg 87%
    06:00 +12°C° 0 mm 1 mps 628 mmHg 89%
    07:00 +13°C° 0 mm 1 mps 629 mmHg 83%
    08:00 +14°C° 0 mm 0 mps 630 mmHg 76%
    09:00 +15°C° 0 mm 0 mps 631 mmHg 70%
    10:00 +19°C° 0 mm 1 mps 631 mmHg 60%
    11:00 +22°C° 0 mm 1 mps 631 mmHg 49%
    12:00 +24°C° 0 mm 2 mps 632 mmHg 38%
    13:00 +25°C° 0 mm 2 mps 631 mmHg 35%
    14:00 +26°C° 0 mm 3 mps 631 mmHg 33%
    15:00 +27°C° 0 mm 3 mps 630 mmHg 30%
    16:00 +25°C° 0 mm 3 mps 630 mmHg 36%
    17:00 +24°C° 0 mm 3 mps 630 mmHg 42%
    18:00 +21°C° 0 mm 2 mps 629 mmHg 48%
    19:00 +19°C° 0 mm 2 mps 629 mmHg 54%
    20:00 +18°C° 0 mm 1 mps 629 mmHg 61%
    21:00 +16°C° 0 mm 1 mps 629 mmHg 68%
    22:00 +15°C° 0 mm 1 mps 628 mmHg 72%
    23:00 +14°C° 0 mm 1 mps 628 mmHg 77%

    29 January, Tuesday

    Time Temperature Precipitation Wind Pressure Humidity
    00:00 +14°C° 0 mm 1 mps 628 mmHg 81%
    01:00 +13°C° 0 mm 1 mps 627 mmHg 82%
    02:00 +13°C° 0 mm 1 mps 627 mmHg 84%
    03:00 +13°C° 0 mm 1 mps 626 mmHg 85%
    04:00 +13°C° 0 mm 1 mps 626 mmHg 85%
    05:00 +12°C° 0 mm 1 mps 626 mmHg 85%
    06:00 +12°C° 0 mm 1 mps 626 mmHg 84%
    07:00 +15°C° 0 mm 1 mps 627 mmHg 73%
    08:00 +18°C° 0 mm 1 mps 629 mmHg 63%
    09:00 +20°C° 0 mm 1 mps 630 mmHg 52%
    10:00 +23°C° 0 mm 1 mps 631 mmHg 44%
    11:00 +25°C° 0 mm 1 mps 631 mmHg 35%
    12:00 +28°C° 0 mm 1 mps 632 mmHg 27%
    13:00 +28°C° 0 mm 1 mps 632 mmHg 25%
    14:00 +28°C° 0 mm 1 mps 631 mmHg 23%
    15:00 +29°C° 0 mm 2 mps 631 mmHg 21%
    16:00 +27°C° 0 mm 2 mps 630 mmHg 28%
    17:00 +25°C° 0 mm 2 mps 630 mmHg 36%
    18:00 +23°C° 0 mm 2 mps 630 mmHg 43%
    19:00 +20°C° 0 mm 2 mps 630 mmHg 55%
    20:00 +19°C° 0 mm 2 mps 630 mmHg 67%
    21:00 +17°C° 0 mm 2 mps 631 mmHg 78%
    22:00 +17°C° 0.1 mm 2 mps 631 mmHg 81%
    23:00 +16°C° 0.1 mm 2 mps 631 mmHg 84%
    Show more